Torna al catalogo

STARLINK-36970

AttivoComunicazioniVLEO
NORAD 68071·PAYLOAD·🇺🇸 United States

Lanciato Mar 4, 2026 da Vandenberg Space Force Base

Loading…

Prossimi Passaggi (prossime 24 ore)

TLE

AggiornatoSource: CelesTrak SupGP

Epoca: Sep 14, 2026, 21:09 UTC

1 68071C 26042C   26257.88173611  .00027159  00000+0  80239-3 0  2578
2 68071  53.1601  16.1185 0001131  61.4488 359.1728 15.34378656    13

Traccia STARLINK-36970 in tempo reale con AllMySat

Download on the App Store